TimeEDT,TemperatureF,Dew PointF,Humidity,Sea Level PressureIn,VisibilityMPH,Wind Direction,Wind SpeedMPH,Gust SpeedMPH,PrecipitationIn,Events,Conditions,WindDirDegrees,DateUTC
12:15 AM,55.4,55.4,100,30.10,10.0,Calm,Calm,-,N/A,,Mostly Cloudy,0,2013-08-18 04:15:00
12:35 AM,55.4,55.4,100,30.10,10.0,Calm,Calm,-,N/A,,Mostly Cloudy,0,2013-08-18 04:35:00
12:55 AM,55.4,55.4,100,30.09,10.0,Calm,Calm,-,N/A,,Mostly Cloudy,0,2013-08-18 04:55:00
1:15 AM,55.4,55.4,100,30.09,10.0,Calm,Calm,-,N/A,,Overcast,0,2013-08-18 05:15:00
1:35 AM,55.4,55.4,100,30.08,10.0,Calm,Calm,-,N/A,,Mostly Cloudy,0,2013-08-18 05:35:00
1:55 AM,55.4,55.4,100,30.08,10.0,Calm,Calm,-,N/A,,Mostly Cloudy,0,2013-08-18 05:55:00
2:15 AM,55.4,55.4,100,30.08,10.0,Calm,Calm,-,N/A,,Mostly Cloudy,0,2013-08-18 06:15:00
2:35 AM,55.4,55.4,100,30.08,10.0,Calm,Calm,-,N/A,,Scattered Clouds,0,2013-08-18 06:35:00
2:55 AM,55.4,55.4,100,30.08,10.0,Calm,Calm,-,N/A,,Clear,0,2013-08-18 06:55:00
3:15 AM,55.4,55.4,100,30.07,10.0,Calm,Calm,-,N/A,,Clear,0,2013-08-18 07:15:00
3:35 AM,53.6,53.6,100,30.07,10.0,Calm,Calm,-,N/A,,Clear,0,2013-08-18 07:35:00
3:55 AM,53.6,53.6,100,30.08,10.0,Calm,Calm,-,N/A,,Scattered Clouds,0,2013-08-18 07:55:00
4:15 AM,55.4,55.4,100,30.09,10.0,Calm,Calm,-,N/A,,Scattered Clouds,0,2013-08-18 08:15:00
4:35 AM,53.6,53.6,100,30.08,7.0,Calm,Calm,-,N/A,,Mostly Cloudy,0,2013-08-18 08:35:00
4:55 AM,55.4,55.4,100,30.08,2.0,NNE,3.5,-,N/A,,Overcast,30,2013-08-18 08:55:00
5:15 AM,55.4,55.4,100,30.08,1.5,NE,3.5,-,N/A,,Overcast,50,2013-08-18 09:15:00
5:35 AM,55.4,55.4,100,30.08,1.2,Calm,Calm,-,N/A,,Overcast,0,2013-08-18 09:35:00
5:55 AM,55.4,55.4,100,30.08,1.0,East,3.5,-,N/A,,Overcast,80,2013-08-18 09:55:00
6:15 AM,55.4,55.4,100,30.08,1.2,East,5.8,-,N/A,,Overcast,90,2013-08-18 10:15:00
6:35 AM,55.4,55.4,100,30.08,2.5,East,5.8,-,N/A,,Overcast,90,2013-08-18 10:35:00
6:55 AM,55.4,55.4,100,30.10,2.5,East,4.6,-,N/A,,Overcast,100,2013-08-18 10:55:00
7:15 AM,55.4,55.4,100,30.11,3.0,Calm,Calm,-,N/A,,Overcast,0,2013-08-18 11:15:00
7:35 AM,55.4,55.4,100,30.11,1.2,ENE,4.6,-,N/A,,Overcast,60,2013-08-18 11:35:00
7:55 AM,55.4,55.4,100,30.11,2.0,East,5.8,-,N/A,,Overcast,80,2013-08-18 11:55:00
8:15 AM,55.4,55.4,100,30.11,2.0,East,5.8,-,N/A,,Overcast,90,2013-08-18 12:15:00
8:35 AM,55.4,55.4,100,30.12,1.5,ENE,4.6,-,N/A,,Overcast,70,2013-08-18 12:35:00
8:55 AM,55.4,55.4,100,30.12,2.5,ENE,5.8,-,N/A,,Overcast,70,2013-08-18 12:55:00
9:15 AM,55.4,55.4,100,30.12,4.0,East,6.9,-,N/A,,Overcast,80,2013-08-18 13:15:00
9:35 AM,55.4,55.4,100,30.12,4.0,East,4.6,-,N/A,,Overcast,90,2013-08-18 13:35:00
9:55 AM,55.4,55.4,100,30.12,5.0,East,5.8,-,N/A,,Overcast,90,2013-08-18 13:55:00
10:15 AM,57.2,57.2,100,30.12,7.0,East,5.8,-,N/A,,Overcast,90,2013-08-18 14:15:00
10:35 AM,57.2,57.2,100,30.13,10.0,East,5.8,-,N/A,,Overcast,90,2013-08-18 14:35:00
10:55 AM,57.2,57.2,100,30.14,10.0,East,4.6,-,N/A,,Overcast,90,2013-08-18 14:55:00
11:35 AM,59.0,57.2,94,30.13,10.0,ESE,5.8,-,N/A,,Overcast,110,2013-08-18 15:35:00
11:55 AM,57.2,55.4,94,30.13,10.0,ESE,6.9,-,N/A,,Overcast,110,2013-08-18 15:55:00
12:15 PM,59.0,57.2,94,30.13,10.0,ENE,5.8,-,N/A,,Overcast,70,2013-08-18 16:15:00
12:35 PM,62.6,59.0,88,30.12,10.0,ESE,5.8,-,N/A,,Overcast,110,2013-08-18 16:35:00
12:55 PM,66.2,62.6,88,30.11,10.0,East,5.8,-,N/A,,Overcast,90,2013-08-18 16:55:00
1:15 PM,71.6,68.0,88,30.10,10.0,East,3.5,-,N/A,,Overcast,100,2013-08-18 17:15:00
1:35 PM,73.4,69.8,88,30.10,10.0,East,5.8,-,N/A,,Mostly Cloudy,90,2013-08-18 17:35:00
1:55 PM,77.0,69.8,78,30.10,10.0,ESE,4.6,-,N/A,Thunderstorm,Scattered Clouds,110,2013-08-18 17:55:00
2:15 PM,75.2,69.8,83,30.10,10.0,Calm,Calm,-,N/A,,Mostly Cloudy,0,2013-08-18 18:15:00
2:35 PM,75.2,69.8,83,30.11,10.0,Calm,Calm,-,N/A,,Overcast,0,2013-08-18 18:35:00
2:55 PM,75.2,69.8,83,30.11,10.0,Calm,Calm,-,N/A,,Overcast,0,2013-08-18 18:55:00
3:15 PM,75.2,71.6,89,30.10,10.0,Calm,Calm,-,N/A,Thunderstorm,Overcast,0,2013-08-18 19:15:00
3:35 PM,73.4,71.6,94,30.09,7.0,Calm,Calm,-,N/A,Rain,Rain,0,2013-08-18 19:35:00
3:55 PM,71.6,71.6,100,30.08,7.0,Calm,Calm,-,N/A,Rain,Light Rain,0,2013-08-18 19:55:00
4:15 PM,71.6,71.6,100,30.06,7.0,Calm,Calm,-,N/A,,Mostly Cloudy,0,2013-08-18 20:15:00
4:35 PM,73.4,71.6,94,30.06,10.0,Calm,Calm,-,N/A,,Mostly Cloudy,0,2013-08-18 20:35:00
4:55 PM,73.4,71.6,94,30.06,10.0,Calm,Calm,-,N/A,,Overcast,0,2013-08-18 20:55:00
5:15 PM,73.4,71.6,94,30.08,10.0,Calm,Calm,-,N/A,,Overcast,0,2013-08-18 21:15:00
5:35 PM,73.4,71.6,94,30.07,10.0,Calm,Calm,-,N/A,,Overcast,0,2013-08-18 21:35:00
5:55 PM,75.2,71.6,89,30.08,10.0,Calm,Calm,-,N/A,,Overcast,0,2013-08-18 21:55:00
6:15 PM,75.2,71.6,89,30.08,10.0,Calm,Calm,-,N/A,,Overcast,0,2013-08-18 22:15:00
6:35 PM,73.4,71.6,94,30.09,10.0,West,6.9,-,N/A,,Overcast,270,2013-08-18 22:35:00
6:55 PM,73.4,69.8,88,30.09,10.0,West,8.1,-,N/A,,Mostly Cloudy,270,2013-08-18 22:55:00
7:15 PM,71.6,69.8,94,30.11,10.0,West,8.1,-,N/A,,Overcast,260,2013-08-18 23:15:00
7:35 PM,69.8,68.0,94,30.12,10.0,West,8.1,-,N/A,Rain,Light Rain,260,2013-08-18 23:35:00
7:55 PM,68.0,68.0,100,30.12,5.0,WSW,9.2,-,N/A,Rain,Heavy Rain,250,2013-08-18 23:55:00
8:15 PM,68.0,68.0,100,30.11,10.0,Calm,Calm,-,N/A,Rain-Thunderstorm,Light Thunderstorms and Rain,0,2013-08-19 00:15:00
8:35 PM,66.2,66.2,100,30.09,10.0,Calm,Calm,-,N/A,,Mostly Cloudy,0,2013-08-19 00:35:00
8:55 PM,64.4,64.4,100,30.07,10.0,Calm,Calm,-,N/A,,Scattered Clouds,0,2013-08-19 00:55:00
9:15 PM,64.4,64.4,100,30.06,10.0,Calm,Calm,-,N/A,,Clear,0,2013-08-19 01:15:00
9:35 PM,64.4,64.4,100,30.07,10.0,Calm,Calm,-,N/A,,Clear,0,2013-08-19 01:35:00
9:55 PM,64.4,64.4,100,30.08,10.0,Calm,Calm,-,N/A,,Clear,0,2013-08-19 01:55:00
10:15 PM,64.4,64.4,100,30.10,10.0,Calm,Calm,-,N/A,Rain,Light Rain,0,2013-08-19 02:15:00
10:35 PM,64.4,64.4,100,30.11,10.0,Calm,Calm,-,N/A,,Clear,0,2013-08-19 02:35:00
10:55 PM,62.6,62.6,100,30.11,10.0,Calm,Calm,-,N/A,,Clear,0,2013-08-19 02:55:00
11:15 PM,60.8,60.8,100,30.10,10.0,Calm,Calm,-,N/A,,Clear,0,2013-08-19 03:15:00
11:35 PM,60.8,60.8,100,30.10,10.0,Calm,Calm,-,N/A,,Clear,0,2013-08-19 03:35:00
11:55 PM,60.8,60.8,100,30.10,7.0,Calm,Calm,-,N/A,,Clear,0,2013-08-19 03:55:00